Date String (YYYY-MM-DD hh:mm:ss) UTC,Instrument flags,absolute air pressure of the measurement (hPa),sample flow rate (lpm),inlet stack bypass flow (lpm),air temperature of the measurement (°C),ambient temperature measured by the external sensor (°C),aerosol sample conditioner tube jacket temperature (°C),OPC LED temperature (°C),internal box temperature (°C),relative humidity of the measurement (%),span deviation,mass concentration of particles derived from Lorenz-Mie calculation of OPC scattering (μg/m³),mass concentration of particles derived from Lorenz-Mie calculation of OPC scattering (μg/m³),mass concentration of particles derived from Lorenz-Mie calculation of OPC scattering (μg/m³)
DateTimeUTC,F1_M11,P_M11,Q1_M11,Q2_M11,T1_M11,T2_M11,T3_M11,T4_M11,T5_M11,U1_M11,ZSPAN_M11,X2_M11,X0_M11,X1_M11
2024-02-29 00:00:00,SystemResetWarning,0827.7,5.00,000.00,021.9,021.3,000.0,030.0,023.6,06.6,0000.0,0002.71,0006.45,0001.19
2024-02-29 00:01:00,SystemResetWarning,0827.7,4.99,000.00,021.9,021.3,000.0,030.0,023.6,06.7,0000.0,0002.64,0005.95,0001.17
2024-02-29 00:02:00,SystemResetWarning,0827.7,5.01,000.00,021.9,021.3,000.0,030.1,023.6,06.8,0000.0,0002.61,0006.25,0001.19
2024-02-29 00:03:00,SystemResetWarning,0827.7,5.01,000.00,021.9,021.3,000.0,030.1,023.6,06.7,0000.0,0002.66,0006.53,0001.18
2024-02-29 00:04:00,SystemResetWarning,0827.7,5.01,000.00,022.0,021.3,000.0,030.1,023.6,06.6,0000.0,0002.71,0007.12,0001.19
2024-02-29 00:05:00,SystemResetWarning,0827.7,5.00,000.00,022.0,021.3,000.0,030.1,023.6,06.6,0000.0,0002.69,0007.04,0001.19
2024-02-29 00:06:00,SystemResetWarning,0827.7,5.00,000.00,022.0,021.3,000.0,030.1,023.7,06.7,0000.0,0002.75,0007.86,0001.19
2024-02-29 00:07:00,SystemResetWarning,0827.7,4.99,000.00,022.0,021.3,000.0,030.1,023.7,06.6,0000.0,0002.79,0007.94,0001.19
2024-02-29 00:08:00,SystemResetWarning,0827.7,4.99,000.00,022.0,021.3,000.0,030.1,023.7,06.7,0000.0,0002.80,0007.98,0001.18
2024-02-29 00:09:00,SystemResetWarning,0827.6,5.00,000.00,022.0,021.3,000.0,030.1,023.7,06.7,0000.0,0002.80,0008.10,0001.18
2024-02-29 00:10:00,SystemResetWarning,0827.6,5.00,000.00,022.0,021.3,000.0,030.1,023.7,06.5,0000.0,0002.71,0008.05,0001.17
2024-02-29 00:11:00,SystemResetWarning,0827.7,5.00,000.00,022.0,021.3,000.0,030.1,023.7,06.5,0000.0,0002.78,0008.17,0001.18
2024-02-29 00:12:00,SystemResetWarning,0827.7,5.00,000.00,022.0,021.3,000.0,030.1,023.7,06.5,0000.0,0002.86,0008.22,0001.17
2024-02-29 00:13:00,SystemResetWarning,0827.7,5.00,000.00,022.0,021.4,000.0,030.2,023.7,06.6,0000.0,0002.81,0008.12,0001.16
2024-02-29 00:14:00,SystemResetWarning,0827.7,5.00,000.00,022.0,021.4,000.0,030.2,023.7,06.5,0000.0,0002.80,0008.15,0001.15
2024-02-29 00:15:00,SystemResetWarning,0827.7,5.00,000.00,022.1,021.4,000.0,030.2,023.8,06.5,0000.0,0002.98,0008.98,0001.17
2024-02-29 00:16:00,SystemResetWarning,0827.7,5.00,000.00,022.1,021.4,000.0,030.2,023.8,06.5,0000.0,0003.10,0010.73,0001.18
2024-02-29 00:17:00,SystemResetWarning,0827.7,4.99,000.00,022.1,021.4,000.0,030.2,023.8,06.5,0000.0,0003.16,0011.22,0001.18
2024-02-29 00:18:00,SystemResetWarning,0827.7,4.99,000.00,022.1,021.4,000.0,030.2,023.8,06.5,0000.0,0003.19,0011.30,0001.17
2024-02-29 00:19:00,SystemResetWarning,0827.7,5.00,000.00,022.1,021.4,000.0,030.2,023.8,06.5,0000.0,0003.20,0011.31,0001.17
2024-02-29 00:20:00,SystemResetWarning,0827.7,5.00,000.00,022.1,021.4,000.0,030.2,023.8,06.3,0000.0,0003.18,0011.31,0001.17
2024-02-29 00:21:00,SystemResetWarning,0827.7,5.01,000.00,022.1,021.4,000.0,030.2,023.8,06.6,0000.0,0003.16,0011.23,0001.17
2024-02-29 00:22:00,SystemResetWarning,0827.7,5.01,000.00,022.1,021.4,000.0,030.3,023.8,06.5,0000.0,0003.12,0011.08,0001.16
2024-02-29 00:23:00,SystemResetWarning,0827.7,5.00,000.00,022.1,021.4,000.0,030.3,023.8,06.5,0000.0,0003.02,0010.94,0001.17
2024-02-29 00:24:00,SystemResetWarning,0827.7,4.99,000.00,022.1,021.4,000.0,030.3,023.9,06.5,0000.0,0003.02,0010.71,0001.19
2024-02-29 00:25:00,SystemResetWarning,0827.7,4.99,000.00,022.1,021.5,000.0,030.3,023.9,06.5,0000.0,0003.04,0010.73,0001.21
2024-02-29 00:26:00,SystemResetWarning,0827.7,5.00,000.00,022.2,021.5,000.0,030.3,023.9,06.4,0000.0,0002.89,0010.18,0001.20
2024-02-29 00:27:00,SystemResetWarning,0827.7,5.01,000.00,022.2,021.5,000.0,030.3,023.9,06.3,0000.0,0002.70,0008.26,0001.20
2024-02-29 00:28:00,SystemResetWarning,0827.7,5.01,000.00,022.2,021.5,000.0,030.3,023.9,06.2,0000.0,0002.69,0006.85,0001.21
2024-02-29 00:29:00,SystemResetWarning,0827.7,5.00,000.00,022.2,021.5,000.0,030.3,023.9,06.4,0000.0,0002.69,0006.89,0001.22
2024-02-29 00:30:00,SystemResetWarning,0827.7,4.99,000.00,022.2,021.5,000.0,030.3,023.9,06.4,0000.0,0002.76,0007.26,0001.24
2024-02-29 00:31:00,SystemResetWarning,0827.7,5.00,000.00,022.2,021.5,000.0,030.3,024.0,06.3,0000.0,0002.84,0007.98,0001.25
2024-02-29 00:32:00,SystemResetWarning,0827.7,4.99,000.00,022.2,021.5,000.0,030.3,024.0,06.2,0000.0,0002.87,0007.97,0001.26
2024-02-29 00:33:00,SystemResetWarning,0827.7,5.00,000.00,022.2,021.5,000.0,030.4,024.0,06.3,0000.0,0002.83,0007.87,0001.28
2024-02-29 00:34:00,SystemResetWarning,0827.7,5.00,000.00,022.2,021.5,000.0,030.4,024.0,06.4,0000.0,0002.91,0007.97,0001.32
2024-02-29 00:35:00,SystemResetWarning,0827.7,5.00,000.00,022.2,021.5,000.0,030.4,024.0,06.5,0000.0,0002.92,0008.02,0001.32
2024-02-29 00:36:00,SystemResetWarning,0827.7,5.00,000.00,022.2,021.5,000.0,030.4,024.0,06.5,0000.0,0002.93,0008.38,0001.31
2024-02-29 00:37:00,SystemResetWarning,0827.7,5.00,000.00,022.2,021.5,000.0,030.4,024.0,06.4,0000.0,0002.98,0008.76,0001.32
2024-02-29 00:38:00,SystemResetWarning,0827.7,5.00,000.00,022.2,021.5,000.0,030.4,024.0,06.4,0000.0,0003.12,0008.96,0001.34
2024-02-29 00:39:00,SystemResetWarning,0827.7,5.00,000.00,022.3,021.5,000.0,030.4,024.0,06.3,0000.0,0003.06,0008.77,0001.35
2024-02-29 00:40:00,SystemResetWarning,0827.7,5.00,000.00,022.3,021.5,000.0,030.4,024.0,06.3,0000.0,0003.05,0008.72,0001.36
2024-02-29 00:41:00,SystemResetWarning,0827.7,4.99,000.00,022.3,021.5,000.0,030.5,024.0,06.3,0000.0,0002.96,0008.38,0001.36
2024-02-29 00:42:00,SystemResetWarning,0827.7,5.00,000.00,022.3,021.5,000.0,030.5,024.0,06.5,0000.0,0002.89,0008.37,0001.35
2024-02-29 00:43:00,SystemResetWarning,0827.7,5.01,000.00,022.3,021.5,000.0,030.5,024.0,06.7,0000.0,0002.90,0008.71,0001.36
2024-02-29 00:44:00,SystemResetWarning,0827.7,5.00,000.00,022.3,021.5,000.0,030.5,024.0,06.8,0000.0,0002.93,0008.93,0001.35
2024-02-29 00:45:00,SystemResetWarning,0827.7,5.00,000.00,022.3,021.5,000.0,030.5,024.0,06.8,0000.0,0002.94,0009.68,0001.35
2024-02-29 00:46:00,SystemResetWarning,0827.8,4.99,000.00,022.3,021.6,000.0,030.5,024.0,06.7,0000.0,0003.06,0009.80,0001.37
2024-02-29 00:47:00,SystemResetWarning,0827.8,4.99,000.00,022.3,021.6,000.0,030.5,024.0,06.6,0000.0,0003.09,0009.59,0001.36
2024-02-29 00:48:00,SystemResetWarning,0827.8,5.00,000.00,022.3,021.6,000.0,030.5,024.0,06.6,0000.0,0003.07,0008.99,0001.36
2024-02-29 00:49:00,SystemResetWarning,0827.7,5.00,000.00,022.3,021.6,000.0,030.5,024.0,06.6,0000.0,0002.94,0008.73,0001.34
2024-02-29 00:50:00,SystemResetWarning,0827.7,5.00,000.00,022.3,021.6,000.0,030.5,024.0,06.7,0000.0,0002.95,0008.76,0001.33
2024-02-29 00:51:00,SystemResetWarning,0827.7,5.00,000.00,022.3,021.6,000.0,030.5,024.1,06.6,0000.0,0002.96,0008.77,0001.33
2024-02-29 00:52:00,SystemResetWarning,0827.7,5.00,000.00,022.3,021.6,000.0,030.5,024.1,06.8,0000.0,0002.97,0008.81,0001.33
2024-02-29 00:53:00,SystemResetWarning,0827.7,5.00,000.00,022.3,021.6,000.0,030.5,024.1,06.8,0000.0,0002.96,0008.39,0001.33
2024-02-29 00:54:00,SystemResetWarning,0827.7,5.00,000.00,022.4,021.6,000.0,030.5,024.1,06.7,0000.0,0003.04,0008.07,0001.34
2024-02-29 00:55:00,SystemResetWarning,0827.7,5.00,000.00,022.4,021.6,000.0,030.5,024.1,06.9,0000.0,0003.11,0008.01,0001.37
2024-02-29 00:56:00,SystemResetWarning,0827.7,4.99,000.00,022.4,021.6,000.0,030.5,024.1,06.9,0000.0,0003.11,0007.18,0001.37
2024-02-29 00:57:00,SystemResetWarning,0827.7,5.00,000.00,022.4,021.6,000.0,030.6,024.1,06.9,0000.0,0003.06,0007.03,0001.38
2024-02-29 00:58:00,SystemResetWarning,0827.8,5.00,000.00,022.4,021.6,000.0,030.6,024.1,06.7,0000.0,0003.02,0006.94,0001.39
2024-02-29 00:59:00,SystemResetWarning,0827.7,5.01,000.00,022.4,021.6,000.0,030.6,024.1,06.4,0000.0,0003.06,0007.14,0001.41
